contact:dominique.lefevre@mio.osupytheas.fr, maurice.libes@osupytheas.fr, didier.mallarino@osupytheas.fr
Project:EMSO http://www.emso-fr.org/EMSO-France
Depth: 2436.0 m
Title:EMSO Ligure Ouest : Data MII capteur AQUADOPP
Date,Latitude,Longitude,X_East,Y_North,Z_Up,Amplitude_X,Amplitude_Y,Amplitude_Z,Batterie,SoundSpeed,Heading,Pitch,Roll,Pressure,TIS,Speed,Direction
, degrees North, degrees East, m.s-1, m.s-1,m.s-1, 1, 1, 1, Volt, m.s-1, degree, degree, degree, dbar, degree_C, m.s-1, degree
2023-02-09T00:04:03,42.805,6.029,-0.018,-0.027,-0.035,104.0,105.0,103.0,13.4,1505.2,318.9,-0.8,1.8,2471.25,13.29,0.032,213.7
2023-02-09T00:07:03,42.805,6.029,-0.023,-0.014,-0.007,105.0,104.0,102.0,13.3,1505.2,317.6,-0.7,1.8,2471.236,13.29,0.026,238.7
2023-02-09T00:10:03,42.805,6.029,-0.037,-0.031,-0.053,105.0,104.0,103.0,13.4,1505.2,324.7,-0.8,1.8,2471.258,13.29,0.048,230.0
2023-02-09T00:13:03,42.805,6.029,-0.012,-0.012,-0.007,105.0,103.0,103.0,13.3,1505.2,327.0,-0.7,1.8,2471.197,13.29,0.016,225.0
2023-02-09T00:16:03,42.805,6.029,-0.015,-0.005,-0.015,104.0,105.0,103.0,13.3,1505.2,327.3,-0.7,1.9,2471.204,13.29,0.015,251.6
2023-02-09T00:19:03,42.805,6.029,-0.036,-0.002,-0.036,104.0,104.0,102.0,13.4,1505.2,321.8,-0.7,1.8,2471.186,13.29,0.036,266.8
2023-02-09T00:22:03,42.805,6.029,-0.027,0.0,-0.029,104.0,104.0,103.0,13.4,1505.2,326.5,-0.7,1.9,2471.182,13.29,0.026,270.0
2023-02-09T00:25:03,42.805,6.029,-0.01,-0.025,-0.01,105.0,104.0,103.0,13.4,1505.2,327.5,-0.7,1.8,2471.174,13.29,0.026,201.8
2023-02-09T00:28:03,42.805,6.029,-0.001,-0.011,-0.012,105.0,104.0,103.0,13.3,1505.2,317.7,-0.7,1.8,2471.151,13.29,0.011,185.2
2023-02-09T00:31:03,42.805,6.029,-0.009,-0.018,-0.009,104.0,105.0,103.0,13.3,1505.2,325.4,-0.8,1.8,2471.193,13.29,0.02,206.6
2023-02-09T00:34:03,42.805,6.029,-0.012,-0.006,-0.017,104.0,105.0,103.0,13.4,1505.2,321.8,-0.7,1.8,2471.188,13.29,0.013,243.4
2023-02-09T00:37:03,42.805,6.029,-0.017,-0.02,-0.057,105.0,104.0,102.0,13.4,1505.2,321.3,-0.8,1.8,2471.175,13.29,0.026,220.4
2023-02-09T00:40:03,42.805,6.029,-0.043,-0.001,-0.035,105.0,103.0,103.0,13.3,1505.2,335.7,-0.8,1.8,2471.17,13.29,0.043,268.7
2023-02-09T00:43:03,42.805,6.029,-0.009,-0.015,-0.008,105.0,104.0,102.0,13.4,1505.2,326.5,-0.8,1.8,2471.163,13.29,0.017,211.0
2023-02-09T00:46:03,42.805,6.029,-0.019,0.0,0.015,105.0,104.0,103.0,13.4,1505.2,326.3,-0.8,1.8,2471.117,13.29,0.019,270.0
2023-02-09T00:49:03,42.805,6.029,-0.021,-0.003,0.02,105.0,103.0,103.0,13.4,1505.2,339.4,-0.7,1.8,2471.16,13.29,0.021,261.9
2023-02-09T00:52:03,42.805,6.029,-0.018,0.016,0.001,103.0,105.0,103.0,13.4,1505.2,340.0,-0.8,1.8,2471.158,13.29,0.024,311.6
2023-02-09T00:55:03,42.805,6.029,-0.007,-0.037,-0.006,104.0,103.0,103.0,13.4,1505.2,321.0,-0.8,1.8,2471.101,13.29,0.037,190.7
2023-02-09T00:58:03,42.805,6.029,-0.019,0.006,-0.024,105.0,102.0,103.0,13.4,1505.2,330.7,-0.8,1.8,2471.123,13.29,0.019,287.5
2023-02-09T01:04:03,42.805,6.029,-0.007,-0.034,-0.033,106.0,105.0,103.0,13.4,1505.2,332.5,-0.8,1.8,2471.208,13.29,0.034,191.6
2023-02-09T01:07:03,42.805,6.029,-0.022,-0.011,-0.023,103.0,105.0,103.0,13.4,1505.2,327.5,-0.8,1.8,2471.184,13.29,0.024,243.4
2023-02-09T01:10:02,42.805,6.029,-0.025,-0.004,-0.015,104.0,104.0,101.0,13.4,1505.2,333.0,-0.8,1.8,2471.194,13.29,0.025,260.9
2023-02-09T01:13:03,42.805,6.029,-0.01,-0.019,-0.008,104.0,103.0,102.0,13.4,1505.2,331.6,-0.8,1.8,2471.164,13.29,0.021,207.8
2023-02-09T01:16:03,42.805,6.029,0.003,0.001,-0.005,103.0,104.0,103.0,13.3,1505.2,331.6,-0.8,1.8,2471.147,13.29,0.003,71.6
2023-02-09T01:19:03,42.805,6.029,-0.011,0.0,-0.014,104.0,104.0,101.0,13.4,1505.2,318.0,-0.8,1.8,2471.159,13.29,0.011,270.0
2023-02-09T01:22:03,42.805,6.029,-0.05,-0.012,0.029,104.0,105.0,103.0,13.4,1505.2,333.8,-0.8,1.8,2471.144,13.29,0.051,256.5
2023-02-09T01:25:03,42.805,6.029,-0.006,-0.011,-0.002,105.0,105.0,102.0,13.4,1505.2,321.7,-0.8,1.8,2471.104,13.29,0.012,208.6
2023-02-09T01:28:03,42.805,6.029,-0.036,-0.009,-0.02,104.0,103.0,103.0,13.4,1505.2,320.0,-0.8,1.8,2471.096,13.29,0.037,256.0
2023-02-09T01:31:03,42.805,6.029,-0.009,-0.003,-0.002,104.0,104.0,102.0,13.4,1505.2,325.5,-0.8,1.8,2471.171,13.29,0.009,251.6
2023-02-09T01:34:03,42.805,6.029,-0.044,-0.007,-0.056,103.0,104.0,101.0,13.4,1505.2,327.0,-0.7,1.8,2471.148,13.29,0.044,261.0
2023-02-09T01:37:03,42.805,6.029,-0.027,0.0,-0.043,105.0,102.0,103.0,13.4,1505.2,338.7,-0.7,1.8,2471.124,13.29,0.026,270.0
2023-02-09T01:40:03,42.805,6.029,-0.014,-0.024,-0.006,106.0,102.0,102.0,13.4,1505.2,330.4,-0.7,1.8,2471.094,13.29,0.027,210.3
2023-02-09T01:43:03,42.805,6.029,-0.018,-0.003,-0.014,103.0,103.0,103.0,13.4,1505.2,331.0,-0.8,1.8,2471.108,13.29,0.018,260.5
2023-02-09T01:46:03,42.805,6.029,-0.03,-0.015,-0.047,104.0,104.0,103.0,13.3,1505.2,331.3,-0.8,1.8,2471.148,13.29,0.033,243.4
2023-02-09T01:49:03,42.805,6.029,-0.02,-0.009,-0.003,103.0,103.0,102.0,13.3,1505.2,321.9,-0.8,1.8,2471.149,13.29,0.021,245.8
2023-02-09T01:52:03,42.805,6.029,-0.027,-0.02,-0.058,103.0,104.0,103.0,13.4,1505.2,338.9,-0.7,1.8,2471.112,13.29,0.033,233.5
2023-02-09T01:55:03,42.805,6.029,-0.026,0.011,-0.02,104.0,103.0,102.0,13.4,1505.2,332.6,-0.8,1.8,2471.124,13.29,0.028,292.9
2023-02-09T01:58:03,42.805,6.029,-0.016,-0.013,-0.008,104.0,104.0,102.0,13.3,1505.2,336.3,-0.7,1.8,2471.116,13.29,0.02,230.9
2023-02-09T02:04:03,42.805,6.029,0.006,-0.018,0.0,104.0,103.0,102.0,13.4,1505.2,320.2,-0.8,1.8,2471.147,13.29,0.018,161.6
2023-02-09T02:07:03,42.805,6.029,-0.005,-0.004,-0.006,104.0,104.0,102.0,13.4,1505.2,324.4,-0.8,1.8,2471.148,13.29,0.006,231.3
2023-02-09T02:10:03,42.805,6.029,-0.032,-0.01,-0.038,104.0,105.0,102.0,13.4,1505.2,330.1,-0.8,1.8,2471.139,13.29,0.033,252.6
2023-02-09T02:13:03,42.805,6.029,-0.026,0.009,-0.002,103.0,104.0,103.0,13.3,1505.2,322.7,-0.8,1.9,2471.15,13.29,0.027,289.1
2023-02-09T02:16:03,42.805,6.029,-0.009,0.002,-0.017,105.0,104.0,103.0,13.4,1505.2,332.1,-0.8,1.8,2471.109,13.29,0.009,282.5
2023-02-09T02:19:03,42.805,6.029,-0.03,0.008,0.0,104.0,104.0,103.0,13.4,1505.2,335.2,-0.7,1.8,2471.127,13.29,0.031,284.9
2023-02-09T02:22:03,42.805,6.029,-0.016,0.012,-0.006,104.0,104.0,103.0,13.4,1505.2,325.2,-0.8,1.8,2471.118,13.29,0.02,306.9
2023-02-09T02:25:03,42.805,6.029,-0.035,0.009,-0.019,105.0,104.0,103.0,13.3,1505.2,329.4,-0.8,1.8,2471.107,13.29,0.036,284.4
2023-02-09T02:28:03,42.805,6.029,-0.01,-0.005,-0.003,104.0,104.0,102.0,13.3,1505.2,336.1,-0.8,1.8,2471.096,13.29,0.011,243.4
2023-02-09T02:31:03,42.805,6.029,-0.002,-0.002,-0.019,106.0,104.0,102.0,13.4,1505.2,315.0,-0.7,1.8,2471.093,13.29,0.002,225.0
2023-02-09T02:34:03,42.805,6.029,-0.016,-0.005,-0.009,105.0,106.0,103.0,13.4,1505.2,331.8,-0.8,1.8,2471.145,13.29,0.016,252.6
2023-02-09T02:37:03,42.805,6.029,-0.026,-0.012,-0.016,104.0,105.0,102.0,13.4,1505.2,332.1,-0.8,1.8,2471.111,13.29,0.028,245.2
2023-02-09T02:40:03,42.805,6.029,-0.013,-0.006,0.005,105.0,104.0,103.0,13.4,1505.2,326.0,-0.8,1.8,2471.113,13.29,0.014,245.2
2023-02-09T02:43:03,42.805,6.029,-0.027,0.006,-0.021,105.0,104.0,102.0,13.3,1505.2,320.1,-0.7,1.8,2471.095,13.29,0.027,282.5
2023-02-09T02:46:03,42.805,6.029,-0.026,0.005,-0.01,104.0,104.0,104.0,13.4,1505.2,317.1,-0.8,1.8,2471.091,13.29,0.026,280.9
2023-02-09T02:49:03,42.805,6.029,-0.046,-0.007,-0.039,105.0,105.0,103.0,13.4,1505.2,329.9,-0.8,1.8,2471.105,13.29,0.046,261.3
2023-02-09T02:52:03,42.805,6.029,-0.011,-0.01,-0.013,104.0,104.0,103.0,13.4,1505.2,320.3,-0.8,1.8,2471.129,13.29,0.014,227.7
2023-02-09T02:55:03,42.805,6.029,-0.015,0.011,-0.006,105.0,104.0,103.0,13.4,1505.2,335.2,-0.7,1.8,2471.076,13.29,0.018,306.3
2023-02-09T02:58:03,42.805,6.029,-0.023,-0.018,-0.025,105.0,104.0,102.0,13.4,1505.2,318.1,-0.8,1.9,2471.09,13.29,0.029,232.0
2023-02-09T03:04:03,42.805,6.029,-0.023,0.001,-0.006,104.0,104.0,102.0,13.4,1505.2,320.3,-0.8,1.8,2471.165,13.29,0.023,272.5
2023-02-09T03:07:03,42.805,6.029,-0.022,0.001,-0.006,105.0,104.0,102.0,13.4,1505.2,329.5,-0.7,1.8,2471.138,13.29,0.022,272.6
2023-02-09T03:10:03,42.805,6.029,-0.021,-0.015,-0.03,103.0,106.0,103.0,13.3,1505.2,320.0,-0.8,1.8,2471.144,13.29,0.025,234.5
2023-02-09T03:13:03,42.805,6.029,-0.016,0.011,0.004,103.0,104.0,103.0,13.4,1505.2,329.9,-0.8,1.8,2471.109,13.29,0.019,304.5
2023-02-09T03:16:03,42.805,6.029,-0.014,0.011,-0.01,105.0,104.0,103.0,13.4,1505.2,325.3,-0.8,1.8,2471.091,13.29,0.017,308.2
2023-02-09T03:19:03,42.805,6.029,-0.037,0.007,-0.031,105.0,104.0,104.0,13.3,1505.2,322.9,-0.8,1.8,2471.123,13.29,0.037,280.7
2023-02-09T03:22:03,42.805,6.029,-0.02,0.012,0.006,104.0,105.0,103.0,13.4,1505.2,331.6,-0.7,1.8,2471.088,13.29,0.023,301.0
2023-02-09T03:25:03,42.805,6.029,-0.011,-0.015,0.0,105.0,106.0,102.0,13.4,1505.2,318.6,-0.8,1.8,2471.149,13.29,0.018,216.3
2023-02-09T03:28:03,42.805,6.029,-0.012,0.005,-0.014,103.0,106.0,103.0,13.3,1505.2,315.5,-0.8,1.8,2471.097,13.29,0.013,292.6
2023-02-09T03:31:03,42.805,6.029,-0.018,0.003,-0.023,104.0,105.0,102.0,13.4,1505.2,317.6,-0.8,1.8,2471.118,13.29,0.018,279.5
2023-02-09T03:34:03,42.805,6.029,-0.035,-0.001,0.008,106.0,104.0,103.0,13.4,1505.2,326.3,-0.7,1.8,2471.109,13.29,0.035,268.4
2023-02-09T03:37:03,42.805,6.029,-0.004,-0.004,-0.033,104.0,104.0,102.0,13.4,1505.2,327.0,-0.8,1.8,2471.115,13.29,0.005,225.0
2023-02-09T03:40:03,42.805,6.029,-0.01,0.017,-0.005,105.0,104.0,103.0,13.4,1505.2,335.5,-0.8,1.8,2471.072,13.29,0.019,329.5
2023-02-09T03:43:03,42.805,6.029,-0.017,0.014,-0.005,106.0,104.0,103.0,13.4,1505.2,329.7,-0.8,1.8,2471.083,13.29,0.022,309.5
2023-02-09T03:46:03,42.805,6.029,-0.015,0.0,0.013,104.0,105.0,102.0,13.3,1505.2,317.6,-0.8,1.8,2471.117,13.29,0.015,270.0
2023-02-09T03:49:03,42.805,6.029,-0.032,0.003,-0.01,106.0,104.0,103.0,13.3,1505.2,332.5,-0.8,1.8,2471.089,13.29,0.032,275.4
2023-02-09T03:52:03,42.805,6.029,-0.035,0.005,-0.014,104.0,104.0,104.0,13.4,1505.2,320.3,-0.7,1.8,2471.062,13.29,0.035,278.1
2023-02-09T03:55:03,42.805,6.029,-0.022,0.016,-0.032,105.0,105.0,103.0,13.4,1505.2,336.9,-0.8,1.8,2471.101,13.29,0.027,306.0
2023-02-09T03:58:03,42.805,6.029,-0.037,0.006,-0.007,105.0,106.0,103.0,13.4,1505.2,328.7,-0.7,1.8,2471.07,13.29,0.037,279.2
2023-02-09T04:04:03,42.805,6.029,-0.022,0.005,0.007,106.0,104.0,103.0,13.4,1505.2,327.4,-0.7,1.8,2471.121,13.29,0.022,282.8
2023-02-09T04:07:03,42.805,6.029,-0.022,0.006,-0.036,106.0,104.0,102.0,13.4,1505.2,326.9,-0.8,1.8,2471.116,13.29,0.022,285.3
2023-02-09T04:10:03,42.805,6.029,-0.018,-0.005,-0.004,106.0,105.0,103.0,13.3,1505.2,317.4,-0.8,1.8,2471.118,13.29,0.018,254.5
2023-02-09T04:13:03,42.805,6.029,-0.002,0.02,0.0,104.0,104.0,103.0,13.4,1505.2,322.5,-0.7,1.9,2471.105,13.29,0.02,354.3
2023-02-09T04:16:03,42.805,6.029,-0.022,0.006,-0.004,106.0,104.0,102.0,13.4,1505.2,336.4,-0.8,1.8,2471.105,13.29,0.022,285.3
2023-02-09T04:19:03,42.805,6.029,-0.021,0.013,0.016,104.0,103.0,102.0,13.4,1505.2,319.0,-0.8,1.8,2471.091,13.29,0.024,301.8
2023-02-09T04:22:03,42.805,6.029,-0.002,0.008,0.006,104.0,103.0,103.0,13.4,1505.2,330.8,-0.7,1.8,2471.084,13.29,0.008,346.0
2023-02-09T04:25:03,42.805,6.029,-0.033,0.02,-0.028,104.0,103.0,103.0,13.3,1505.2,331.3,-0.8,1.8,2471.101,13.29,0.038,301.2
2023-02-09T04:28:03,42.805,6.029,-0.024,0.005,-0.012,105.0,104.0,103.0,13.4,1505.2,332.5,-0.8,1.8,2471.1,13.29,0.024,281.8
2023-02-09T04:31:03,42.805,6.029,-0.014,0.009,-0.008,105.0,104.0,103.0,13.4,1505.2,318.6,-0.7,1.8,2471.122,13.29,0.016,302.7
2023-02-09T04:34:03,42.805,6.029,-0.017,-0.002,0.012,104.0,104.0,103.0,13.3,1505.2,324.1,-0.7,1.8,2471.082,13.29,0.017,263.3
2023-02-09T04:37:03,42.805,6.029,-0.008,-0.005,0.003,105.0,104.0,103.0,13.3,1505.2,329.5,-0.8,1.8,2471.132,13.29,0.009,238.0
2023-02-09T04:40:03,42.805,6.029,-0.033,0.001,-0.006,105.0,105.0,102.0,13.3,1505.2,324.2,-0.8,1.8,2471.114,13.29,0.033,271.7
2023-02-09T04:43:03,42.805,6.029,-0.037,0.018,0.0,104.0,103.0,103.0,13.4,1505.2,333.4,-0.8,1.8,2471.13,13.29,0.041,295.9
2023-02-09T04:46:03,42.805,6.029,-0.025,0.028,-0.021,104.0,104.0,103.0,13.3,1505.2,337.7,-0.7,1.8,2471.106,13.29,0.037,318.2
2023-02-09T04:49:03,42.805,6.029,-0.047,-0.008,0.0,105.0,103.0,102.0,13.4,1505.2,318.1,-0.7,1.8,2471.115,13.29,0.047,260.3
2023-02-09T04:52:03,42.805,6.029,-0.015,-0.004,0.004,104.0,104.0,103.0,13.3,1505.2,323.4,-0.8,1.8,2471.116,13.29,0.015,255.1
2023-02-09T04:55:03,42.805,6.029,0.0,0.011,-0.005,103.0,105.0,103.0,13.3,1505.2,333.0,-0.8,1.7,2471.104,13.29,0.011,0.0
2023-02-09T04:58:03,42.805,6.029,-0.014,0.018,-0.001,104.0,104.0,103.0,13.3,1505.2,327.4,-0.7,1.8,2471.105,13.29,0.022,322.1
2023-02-09T05:04:03,42.805,6.029,-0.031,-0.002,-0.036,105.0,104.0,103.0,13.4,1505.2,333.4,-0.8,1.8,2471.151,13.29,0.031,266.3
2023-02-09T05:07:03,42.805,6.029,-0.006,0.019,-0.008,104.0,103.0,104.0,13.4,1505.2,330.4,-0.8,1.8,2471.136,13.29,0.019,342.5
2023-02-09T05:10:03,42.805,6.029,-0.026,0.006,-0.019,105.0,104.0,103.0,13.3,1505.2,327.3,-0.7,1.8,2471.14,13.29,0.026,283.0
2023-02-09T05:13:03,42.805,6.029,-0.011,0.001,0.008,103.0,104.0,102.0,13.4,1505.2,332.1,-0.8,1.8,2471.134,13.29,0.011,275.2
2023-02-09T05:16:03,42.805,6.029,-0.016,0.002,0.002,105.0,105.0,102.0,13.4,1505.2,328.9,-0.8,1.8,2471.133,13.29,0.016,277.1
2023-02-09T05:19:03,42.805,6.029,-0.027,0.013,-0.01,104.0,104.0,103.0,13.4,1505.2,340.0,-0.8,1.8,2471.145,13.29,0.029,295.7
2023-02-09T05:22:03,42.805,6.029,0.002,-0.005,-0.032,104.0,104.0,103.0,13.4,1505.2,318.0,-0.8,1.9,2471.107,13.29,0.005,158.2
2023-02-09T05:25:03,42.805,6.029,-0.024,0.006,-0.019,105.0,104.0,103.0,13.4,1505.2,327.7,-0.7,1.8,2471.116,13.29,0.024,284.0
2023-02-09T05:28:03,42.805,6.029,-0.029,-0.007,-0.041,104.0,104.0,103.0,13.4,1505.2,321.3,-0.7,1.8,2471.141,13.29,0.029,256.4
2023-02-09T05:31:03,42.805,6.029,-0.013,0.01,-0.031,103.0,104.0,103.0,13.4,1505.2,325.6,-0.8,1.8,2471.161,13.29,0.016,307.6
2023-02-09T05:34:03,42.805,6.029,-0.014,-0.003,-0.016,105.0,105.0,103.0,13.4,1505.2,330.0,-0.8,1.8,2471.179,13.29,0.014,257.9
2023-02-09T05:37:03,42.805,6.029,-0.013,0.004,-0.009,104.0,104.0,102.0,13.4,1505.2,330.8,-0.8,1.8,2471.135,13.29,0.013,287.1
2023-02-09T05:40:03,42.805,6.029,-0.009,0.021,0.025,105.0,103.0,104.0,13.4,1505.2,337.6,-0.8,1.8,2471.141,13.29,0.022,336.8
2023-02-09T05:43:03,42.805,6.029,-0.012,-0.004,0.013,105.0,104.0,104.0,13.4,1505.2,320.2,-0.8,1.8,2471.141,13.29,0.012,251.6
2023-02-09T05:46:03,42.805,6.029,-0.032,0.001,0.003,105.0,104.0,102.0,13.3,1505.2,330.7,-0.8,1.8,2471.144,13.29,0.032,271.8
2023-02-09T05:49:03,42.805,6.029,-0.027,-0.015,-0.016,105.0,104.0,102.0,13.4,1505.2,322.8,-0.8,1.8,2471.164,13.29,0.03,240.9
2023-02-09T05:52:03,42.805,6.029,-0.025,0.008,-0.01,104.0,104.0,102.0,13.4,1505.2,336.9,-0.8,1.8,2471.155,13.29,0.026,287.7
2023-02-09T05:55:03,42.805,6.029,-0.006,0.009,0.009,103.0,105.0,103.0,13.4,1505.2,325.0,-0.8,1.8,2471.128,13.29,0.01,326.3
2023-02-09T05:58:03,42.805,6.029,-0.024,0.013,-0.035,105.0,104.0,102.0,13.3,1505.2,339.2,-0.8,1.8,2471.15,13.29,0.027,298.4
2023-02-09T06:04:03,42.805,6.029,-0.009,-0.001,-0.03,105.0,104.0,103.0,13.3,1505.2,329.4,-0.8,1.8,2471.214,13.29,0.009,263.7
2023-02-09T06:07:03,42.805,6.029,-0.012,0.009,-0.002,105.0,104.0,103.0,13.3,1505.2,328.0,-0.8,1.8,2471.204,13.29,0.015,306.9
2023-02-09T06:10:03,42.805,6.029,-0.024,0.006,0.014,104.0,104.0,103.0,13.4,1505.2,325.2,-0.8,1.9,2471.248,13.29,0.024,284.0
2023-02-09T06:13:03,42.805,6.029,-0.019,0.021,-0.036,107.0,103.0,103.0,13.3,1505.2,336.1,-0.7,1.8,2471.18,13.29,0.028,317.9
2023-02-09T06:16:03,42.805,6.029,-0.025,-0.003,-0.006,103.0,103.0,103.0,13.3,1505.2,318.6,-0.7,1.8,2471.204,13.29,0.025,263.2
2023-02-09T06:19:03,42.805,6.029,-0.019,0.027,0.01,106.0,104.0,102.0,13.3,1505.2,326.0,-0.8,1.8,2471.23,13.29,0.033,324.9
2023-02-09T06:22:03,42.805,6.029,0.006,0.006,0.005,105.0,103.0,103.0,13.4,1505.2,320.7,-0.8,1.8,2471.18,13.29,0.008,45.0
2023-02-09T06:25:03,42.805,6.029,-0.028,0.02,0.004,105.0,104.0,103.0,13.4,1505.2,331.7,-0.8,1.8,2471.222,13.29,0.034,305.5
2023-02-09T06:28:03,42.805,6.029,-0.026,0.024,0.016,105.0,105.0,102.0,13.4,1505.2,330.0,-0.8,1.8,2471.205,13.29,0.035,312.7
2023-02-09T06:31:03,42.805,6.029,-0.015,0.008,0.002,104.0,105.0,103.0,13.4,1505.2,319.6,-0.8,1.8,2471.204,13.29,0.017,298.1
2023-02-09T06:34:03,42.805,6.029,-0.025,0.0,-0.005,103.0,105.0,103.0,13.3,1505.2,329.5,-0.7,1.8,2471.189,13.29,0.025,270.0
2023-02-09T06:37:03,42.805,6.029,-0.024,0.019,0.005,105.0,105.0,102.0,13.3,1505.2,330.2,-0.8,1.8,2471.211,13.29,0.03,308.4
2023-02-09T06:40:03,42.805,6.029,-0.02,0.007,-0.025,104.0,105.0,103.0,13.4,1505.2,330.4,-0.8,1.8,2471.225,13.29,0.021,289.3
2023-02-09T06:43:03,42.805,6.029,-0.005,0.031,0.003,105.0,104.0,103.0,13.3,1505.2,335.2,-0.8,1.8,2471.214,13.29,0.031,350.8
2023-02-09T06:46:03,42.805,6.029,-0.014,0.012,0.026,104.0,105.0,103.0,13.4,1505.2,322.9,-0.8,1.8,2471.231,13.29,0.018,310.6
2023-02-09T06:49:03,42.805,6.029,-0.011,0.016,-0.003,103.0,106.0,104.0,13.4,1505.2,339.4,-0.8,1.8,2471.185,13.29,0.019,325.5
2023-02-09T06:52:03,42.805,6.029,0.016,-0.002,0.005,106.0,105.0,102.0,13.4,1505.2,328.6,-0.8,1.8,2471.191,13.29,0.016,97.1
2023-02-09T06:55:03,42.805,6.029,-0.002,-0.005,-0.025,107.0,104.0,103.0,13.3,1505.2,329.5,-0.7,1.8,2471.206,13.29,0.005,201.8
2023-02-09T06:58:03,42.805,6.029,-0.013,0.006,-0.022,106.0,105.0,103.0,13.3,1505.2,331.6,-0.8,1.8,2471.25,13.29,0.014,294.8
2023-02-09T07:04:03,42.805,6.029,-0.039,-0.006,0.002,106.0,105.0,102.0,13.4,1505.2,336.5,-0.8,1.8,2471.275,13.29,0.039,261.3
2023-02-09T07:07:03,42.805,6.029,-0.027,0.021,0.009,104.0,103.0,103.0,13.4,1505.2,340.3,-0.8,1.8,2471.248,13.29,0.034,307.9
2023-02-09T07:10:03,42.805,6.029,0.0,0.008,0.002,105.0,103.0,102.0,13.4,1505.2,333.4,-0.7,1.8,2471.238,13.29,0.008,0.0
2023-02-09T07:13:03,42.805,6.029,-0.017,0.01,0.017,103.0,103.0,103.0,13.3,1505.2,320.7,-0.8,1.8,2471.242,13.29,0.019,300.5
2023-02-09T07:16:03,42.805,6.029,-0.004,0.003,-0.005,105.0,103.0,102.0,13.4,1505.2,325.6,-0.8,1.8,2471.302,13.29,0.005,306.9
2023-02-09T07:19:03,42.805,6.029,-0.025,0.003,-0.013,104.0,103.0,103.0,13.4,1505.2,316.0,-0.8,1.8,2471.283,13.29,0.025,276.8
2023-02-09T07:22:03,42.805,6.029,0.007,0.01,0.003,103.0,104.0,102.0,13.4,1505.2,322.6,-0.8,1.8,2471.258,13.29,0.012,35.0
2023-02-09T07:25:03,42.805,6.029,-0.004,0.027,0.001,102.0,104.0,102.0,13.4,1505.2,337.1,-0.8,1.8,2471.244,13.29,0.027,351.6
2023-02-09T07:28:03,42.805,6.029,-0.003,0.0,-0.006,103.0,104.0,103.0,13.4,1505.2,323.1,-0.7,1.8,2471.266,13.29,0.003,270.0
2023-02-09T07:31:03,42.805,6.029,-0.015,0.002,-0.018,104.0,103.0,103.0,13.4,1505.2,325.4,-0.8,1.8,2471.261,13.29,0.015,277.6
2023-02-09T12:04:03,42.805,6.029,0.005,0.006,0.025,101.0,102.0,100.0,13.4,1505.2,317.8,-0.8,1.8,2471.656,13.28,0.007,39.8
2023-02-09T12:07:03,42.805,6.029,-0.028,0.014,-0.006,101.0,101.0,100.0,13.3,1505.2,321.6,-0.8,1.8,2471.59,13.28,0.031,296.6
2023-02-09T12:10:03,42.805,6.029,0.007,0.007,0.002,101.0,101.0,101.0,13.3,1505.2,339.4,-0.8,1.8,2471.459,13.28,0.009,45.0
2023-02-09T12:13:03,42.805,6.029,-0.002,0.002,-0.017,101.0,101.0,100.0,13.4,1505.2,332.7,-0.8,1.8,2471.432,13.29,0.002,315.0
2023-02-09T12:16:03,42.805,6.029,-0.003,0.022,0.016,102.0,101.0,101.0,13.4,1505.2,337.8,-0.8,1.8,2471.348,13.29,0.022,352.2
2023-02-09T12:19:03,42.805,6.029,-0.014,-0.002,-0.009,101.0,102.0,102.0,13.4,1505.2,320.8,-0.8,1.8,2471.287,13.29,0.014,261.9
2023-02-09T12:22:03,42.805,6.029,-0.015,0.006,0.016,102.0,101.0,99.0,13.4,1505.2,320.7,-0.8,1.8,2471.291,13.29,0.016,291.8
2023-02-09T12:25:03,42.805,6.029,-0.014,0.004,0.003,101.0,99.0,102.0,13.3,1505.2,331.8,-0.8,1.8,2471.256,13.29,0.014,285.9
2023-02-09T12:28:03,42.805,6.029,-0.007,0.007,-0.004,103.0,103.0,100.0,13.4,1505.2,330.5,-0.8,1.8,2471.211,13.29,0.009,315.0
2023-02-09T12:31:03,42.805,6.029,-0.02,-0.001,-0.012,101.0,102.0,100.0,13.4,1505.2,320.7,-0.7,1.8,2471.253,13.29,0.02,267.1
2023-02-09T12:34:03,42.805,6.029,0.009,-0.013,0.022,102.0,101.0,100.0,13.4,1505.2,328.3,-0.8,1.8,2471.217,13.29,0.015,145.3
2023-02-09T12:37:03,42.805,6.029,-0.027,-0.001,-0.023,102.0,101.0,101.0,13.4,1505.2,326.7,-0.7,1.8,2471.203,13.29,0.027,267.9
2023-02-09T12:40:03,42.805,6.029,-0.015,-0.011,-0.048,100.0,104.0,102.0,13.4,1505.2,333.0,-0.8,1.8,2471.219,13.29,0.018,233.7
2023-02-09T12:43:03,42.805,6.029,-0.002,-0.005,-0.008,102.0,101.0,100.0,13.3,1505.2,324.2,-0.8,1.8,2471.198,13.29,0.005,201.8
2023-02-09T12:46:03,42.805,6.029,0.003,0.006,-0.005,102.0,102.0,101.0,13.4,1505.2,335.2,-0.7,1.8,2471.226,13.29,0.006,26.6
2023-02-09T12:49:03,42.805,6.029,-0.003,-0.004,-0.023,101.0,102.0,101.0,13.4,1505.2,326.9,-0.7,1.8,2471.192,13.29,0.005,216.9
2023-02-09T12:52:03,42.805,6.029,0.001,-0.008,-0.029,102.0,101.0,101.0,13.3,1505.2,325.0,-0.7,1.8,2471.211,13.29,0.008,172.9
2023-02-09T12:55:03,42.805,6.029,-0.016,0.02,-0.022,102.0,101.0,101.0,13.4,1505.2,330.2,-0.8,1.8,2471.217,13.29,0.025,321.3
2023-02-09T12:58:03,42.805,6.029,0.015,0.005,0.005,101.0,101.0,101.0,13.4,1505.2,320.9,-0.8,1.8,2471.176,13.29,0.015,71.6
2023-02-09T13:04:03,42.805,6.029,-0.005,-0.005,0.014,102.0,102.0,101.0,13.4,1505.2,339.5,-0.7,1.8,2471.254,13.29,0.007,225.0
2023-02-09T13:07:03,42.805,6.029,0.016,0.001,0.002,101.0,102.0,101.0,13.4,1505.2,334.2,-0.8,1.8,2471.264,13.29,0.016,86.4
2023-02-09T13:10:03,42.805,6.029,0.007,-0.006,-0.005,101.0,102.0,100.0,13.4,1505.2,329.1,-0.8,1.8,2471.263,13.29,0.009,130.6
2023-02-09T13:13:03,42.805,6.029,0.006,-0.008,-0.004,101.0,102.0,100.0,13.3,1505.2,320.4,-0.8,1.8,2471.216,13.29,0.01,143.1
2023-02-09T13:16:03,42.805,6.029,0.011,0.003,-0.006,102.0,103.0,102.0,13.4,1505.2,320.8,-0.7,1.8,2471.226,13.29,0.011,74.7
2023-02-09T13:19:03,42.805,6.029,-0.003,-0.009,-0.027,100.0,103.0,100.0,13.3,1505.2,333.0,-0.8,1.8,2471.212,13.29,0.009,198.4
2023-02-09T13:22:03,42.805,6.029,-0.008,-0.006,-0.014,101.0,101.0,101.0,13.4,1505.2,326.3,-0.8,1.8,2471.209,13.29,0.01,233.1
2023-02-09T13:25:03,42.805,6.029,0.0,-0.005,-0.018,101.0,102.0,101.0,13.3,1505.2,328.2,-0.7,1.8,2471.196,13.29,0.005,180.0
2023-02-09T13:28:03,42.805,6.029,-0.008,0.002,-0.011,100.0,102.0,101.0,13.3,1505.2,329.8,-0.8,1.8,2471.191,13.29,0.008,284.0
2023-02-09T13:31:03,42.805,6.029,0.0,-0.028,-0.039,102.0,101.0,101.0,13.4,1505.2,324.0,-0.8,1.8,2471.206,13.29,0.028,180.0
2023-02-09T13:34:03,42.805,6.029,-0.009,-0.02,-0.03,100.0,101.0,100.0,13.3,1505.2,319.4,-0.7,1.9,2471.197,13.29,0.021,204.2
2023-02-09T13:37:03,42.805,6.029,-0.021,0.001,-0.018,103.0,101.0,100.0,13.4,1505.2,326.0,-0.8,1.8,2471.183,13.29,0.021,272.7
2023-02-09T13:40:03,42.805,6.029,-0.006,0.005,-0.012,101.0,102.0,101.0,13.3,1505.2,326.3,-0.8,1.8,2471.17,13.29,0.007,309.8
2023-02-09T13:43:03,42.805,6.029,0.003,-0.027,-0.017,102.0,102.0,101.0,13.3,1505.2,327.6,-0.7,1.8,2471.2,13.29,0.027,173.7
2023-02-09T13:46:03,42.805,6.029,-0.002,-0.01,-0.014,100.0,102.0,101.0,13.4,1505.2,323.2,-0.7,1.8,2471.193,13.29,0.01,191.3
2023-02-09T13:49:03,42.805,6.029,-0.016,-0.006,-0.021,101.0,100.0,101.0,13.4,1505.2,331.9,-0.8,1.8,2471.156,13.29,0.017,249.4
2023-02-09T13:52:03,42.805,6.029,-0.003,-0.016,-0.022,102.0,101.0,100.0,13.4,1505.2,331.0,-0.8,1.8,2471.192,13.29,0.016,190.6
2023-02-09T13:55:03,42.805,6.029,-0.007,-0.009,-0.006,100.0,102.0,101.0,13.4,1505.2,326.0,-0.8,1.8,2471.166,13.29,0.011,217.9
2023-02-09T13:58:03,42.805,6.029,0.006,-0.012,-0.016,101.0,103.0,100.0,13.4,1505.2,324.3,-0.8,1.8,2471.169,13.29,0.013,153.4
2023-02-09T14:04:03,42.805,6.029,0.022,-0.019,-0.03,103.0,103.0,100.0,13.4,1505.2,326.0,-0.8,1.8,2471.232,13.29,0.029,130.8
2023-02-09T14:07:03,42.805,6.029,-0.009,-0.013,-0.043,102.0,102.0,101.0,13.3,1505.2,322.2,-0.7,1.8,2471.197,13.29,0.015,214.7
2023-02-09T14:10:03,42.805,6.029,0.014,-0.01,-0.02,102.0,101.0,101.0,13.4,1505.2,322.3,-0.8,1.8,2471.175,13.29,0.017,125.5
2023-02-09T14:13:03,42.805,6.029,-0.02,0.001,-0.019,101.0,101.0,102.0,13.4,1505.2,331.9,-0.8,1.8,2471.202,13.29,0.02,272.9
2023-02-09T14:16:03,42.805,6.029,-0.006,-0.022,-0.007,101.0,103.0,100.0,13.3,1505.2,338.5,-0.8,1.8,2471.199,13.29,0.022,195.3
2023-02-09T14:19:03,42.805,6.029,-0.014,-0.02,-0.003,100.0,102.0,101.0,13.3,1505.2,320.8,-0.7,1.8,2471.163,13.29,0.024,215.0
2023-02-09T14:22:03,42.805,6.029,0.005,-0.011,-0.013,101.0,101.0,101.0,13.4,1505.2,325.5,-0.8,1.8,2471.166,13.29,0.012,155.6